This demonstration page uses our WeatherBlox Daily Observations layout. Learn more.

39.29038, -76.61219

Hourly Observations for August 13, 2020

Temp ( °F °C ) Dew Point ( °F °C ) Humidity (%) Winds ( mph kmh ) Pressure ( in mb ) Visibility ( mi km ) Precip ( " mm )
12:54 am 00:54 Mostly Cloudy 74 23.3 72 22.2 94 94 Calm 30.05 1018 9 14.48406 0 0
1:54 am 01:54 Mostly Cloudy 75 23.9 72 22.2 90 90 Calm 30.04 1017 8 12.87472 0 0
2:23 am 02:23 Mostly Cloudy 74 23.3 72 22.2 94 94 Calm 30.03 1017 8 12.87472 0 0
2:54 am 02:54 Mostly Cloudy 75 23.9 73 22.8 94 94 Calm 30.04 1017 10 16.0934 0 0
3:41 am 03:41 Mostly Cloudy 75 23.9 72 22.2 90 90 NNE 3 6 30.04 1017 10 16.0934 0 0
3:54 am 03:54 Mostly Cloudy 75 23.9 72 22.2 90 90 Calm 30.04 1017 10 16.0934 0 0
4:12 am 04:12 Mostly Cloudy 74 23.3 72 22.2 94 94 Calm 30.04 1017 10 16.0934 0 0
4:54 am 04:54 Mostly Cloudy 74 23.3 72 22.2 94 94 Calm 30.04 1017 10 16.0934 0 0
5:54 am 05:54 Cloudy 75 23.9 72 22.2 90 90 NNE 5 7 30.05 1018 10 16.0934 0 0
6:54 am 06:54 Cloudy with Light Rain 76 24.4 72 22.2 88 88 NNE 5 7 30.06 1018 10 16.0934 0.001 0.001
7:52 am 07:52 Cloudy with Light Rain 75 24 73 23 94 94 E 5 7 30.06 1018 7 11.26538 0.001 0.001
7:54 am 07:54 Cloudy with Light Rain 76 24.4 73 22.8 91 91 E 6 9 30.07 1018 7 11.26538 0.001 0.001
8:19 am 08:19 Cloudy with Light Rain 76 24.4 73 22.8 91 91 Calm 30.07 1018 4 6.43736 0.02 0.508
8:54 am 08:54 Cloudy with Light Rain 76 24.4 74 23.3 94 94 E 6 9 30.07 1018 3 4.82802 0.1 2.54
9:54 am 09:54 Mostly Cloudy with Rain 75 23.9 73 22.8 94 94 Calm 30.08 1019 3 4.82802 0.17 4.318
10:54 am 10:54 Cloudy with Rain 75 23.9 72 22.2 90 90 Calm 30.09 1019 5 8.0467 0.12 3.048
11:54 am 11:54 Cloudy with Light Rain 75 23.9 72 22.2 90 90 Calm 30.07 1018 6 9.65604 0.15 3.81
12:46 pm 12:46 Mostly Cloudy 79 26.1 74 23.3 85 85 NNE 5 7 30.06 1018 10 16.0934 0.02 0.508
12:54 pm 12:54 Cloudy 79 26.1 73 22.8 82 82 N 3 6 30.06 1018 10 16.0934 0.02 0.508
1:54 pm 13:54 Cloudy 81 27.2 73 22.8 77 77 NE 7 11 30.05 1018 10 16.0934 0 0
2:06 pm 14:06 Cloudy 80 26.7 72 22.2 76 76 NNE 6 9 30.05 1018 10 16.0934 0 0
2:54 pm 14:54 Cloudy 82 27.8 74 23.3 77 77 NE 7 11 30.04 1017 10 16.0934 0 0
3:28 pm 15:28 Mostly Cloudy 82 27.8 73 22.8 74 74 ENE 8 13 30.03 1017 10 16.0934 0 0
3:54 pm 15:54 Mostly Cloudy 81 27.2 73 22.8 77 77 ENE 9 15 30.02 1017 10 16.0934 0 0
4:54 pm 16:54 Mostly Cloudy 83 28.3 73 22.8 72 72 E 14 22 30.01 1016 10 16.0934 0 0
5:54 pm 17:54 Mostly Cloudy 82 27.8 71 21.7 69 69 E 10 17 30.02 1017 10 16.0934 0 0
6:54 pm 18:54 Mostly Cloudy 80 26.7 71 21.7 74 74 E 12 19 30.02 1017 10 16.0934 0 0
7:54 pm 19:54 Mostly Cloudy 79 26.1 72 22.2 79 79 E 10 17 30.02 1017 10 16.0934 0 0
8:54 pm 20:54 Partly Cloudy 78 25.6 72 22.2 82 82 E 9 15 30.02 1017 10 16.0934 0 0
9:54 pm 21:54 Mostly Cloudy 78 25.6 73 22.8 85 85 ENE 7 11 30.04 1017 10 16.0934 0 0
10:54 pm 22:54 Partly Cloudy 77 25 72 22.2 85 85 ENE 9 15 30.04 1017 10 16.0934 0 0
11:54 pm 23:54 Partly Cloudy 77 25 71 21.7 82 82 NE 7 11 30.02 1017 10 16.0934 0 0

Powered by AerisWeather